Time,TemperatureF,DewpointF,PressureIn,WindDirection,WindDirectionDegrees,WindSpeedMPH,WindSpeedGustMPH,Humidity,HourlyPrecipIn,Conditions,Clouds,dailyrainin,SoftwareType,DateUTC
2013-02-24 00:00:00,29.7,24.6,29.79,WSW,240,0.0,2.0,81,0.00,,,0.05,Wunderground v.1.15,2013-02-24 07:00:00,
2013-02-24 00:05:00,29.6,24.8,29.79,WSW,238,0.0,2.0,82,0.00,,,0.00,Wunderground v.1.15,2013-02-24 07:05:00,
2013-02-24 00:15:00,29.5,25.0,29.81,SW,233,1.0,1.0,83,0.00,,,0.00,Wunderground v.1.15,2013-02-24 07:15:00,
2013-02-24 00:20:00,29.4,24.9,29.81,SW,223,0.0,0.0,83,0.00,,,0.00,Wunderground v.1.15,2013-02-24 07:20:00,
2013-02-24 00:30:00,29.3,25.1,29.80,WSW,242,0.0,1.0,84,0.00,,,0.00,Wunderground v.1.15,2013-02-24 07:30:00,
2013-02-24 00:35:00,29.2,25.3,29.81,WSW,255,1.0,1.0,85,0.00,,,0.00,Wunderground v.1.15,2013-02-24 07:35:00,
2013-02-24 00:40:00,29.0,25.3,29.80,WSW,255,1.0,1.0,86,0.00,,,0.00,Wunderground v.1.15,2013-02-24 07:40:00,
2013-02-24 00:45:00,28.9,25.2,29.81,WSW,256,0.0,1.0,86,0.00,,,0.00,Wunderground v.1.15,2013-02-24 07:45:00,
2013-02-24 00:50:00,28.9,25.2,29.81,SW,228,0.0,0.0,86,0.00,,,0.00,Wunderground v.1.15,2013-02-24 07:50:00,
2013-02-24 01:00:00,28.8,25.4,29.81,SW,228,0.0,0.0,87,0.00,,,0.00,Wunderground v.1.15,2013-02-24 08:00:00,
2013-02-24 01:05:00,28.8,25.4,29.81,SW,228,0.0,0.0,87,0.00,,,0.00,Wunderground v.1.15,2013-02-24 08:05:00,
2013-02-24 01:15:00,28.8,25.1,29.81,SW,228,0.0,1.0,86,0.00,,,0.00,Wunderground v.1.15,2013-02-24 08:15:00,
2013-02-24 01:20:00,28.9,25.2,29.81,SSE,166,0.0,0.0,86,0.00,,,0.00,Wunderground v.1.15,2013-02-24 08:20:00,
2013-02-24 01:25:00,28.9,25.2,29.80,SSE,167,0.0,0.0,86,0.00,,,0.00,Wunderground v.1.15,2013-02-24 08:25:00,
2013-02-24 01:35:00,28.9,25.5,29.81,WSW,252,0.0,1.0,87,0.00,,,0.00,Wunderground v.1.15,2013-02-24 08:35:00,
2013-02-24 01:40:00,28.8,25.4,29.80,West,271,0.0,0.0,87,0.00,,,0.00,Wunderground v.1.15,2013-02-24 08:40:00,
2013-02-24 01:45:00,28.8,25.7,29.80,WSW,257,1.0,1.0,88,0.00,,,0.00,Wunderground v.1.15,2013-02-24 08:45:00,
2013-02-24 01:50:00,28.8,25.7,29.80,West,280,1.0,1.0,88,0.00,,,0.00,Wunderground v.1.15,2013-02-24 08:50:00,
2013-02-24 02:00:00,28.9,25.5,29.79,West,269,1.0,1.0,87,0.00,,,0.00,Wunderground v.1.15,2013-02-24 09:00:00,
2013-02-24 02:05:00,28.9,25.5,29.79,WSW,257,1.0,1.0,87,0.00,,,0.00,Wunderground v.1.15,2013-02-24 09:05:00,
2013-02-24 02:15:00,28.8,25.4,29.79,West,278,1.0,1.0,87,0.00,,,0.00,Wunderground v.1.15,2013-02-24 09:15:00,
2013-02-24 02:20:00,28.7,25.6,29.79,West,260,1.0,1.0,88,0.00,,,0.00,Wunderground v.1.15,2013-02-24 09:20:00,
2013-02-24 02:25:00,28.7,25.6,29.78,West,260,1.0,1.0,88,0.00,,,0.00,Wunderground v.1.15,2013-02-24 09:25:00,
2013-02-24 02:30:00,28.7,25.6,29.79,WSW,250,0.0,1.0,88,0.00,,,0.00,Wunderground v.1.15,2013-02-24 09:30:00,
2013-02-24 02:40:00,28.7,25.6,29.78,WSW,243,1.0,1.0,88,0.00,,,0.00,Wunderground v.1.15,2013-02-24 09:40:00,
2013-02-24 02:45:00,28.7,25.6,29.78,WSW,243,0.0,1.0,88,0.00,,,0.00,Wunderground v.1.15,2013-02-24 09:45:00,
2013-02-24 02:50:00,28.7,25.6,29.78,WSW,243,0.0,0.0,88,0.00,,,0.00,Wunderground v.1.15,2013-02-24 09:50:00,
2013-02-24 02:55:00,28.7,25.6,29.79,WSW,243,0.0,0.0,88,0.00,,,0.00,Wunderground v.1.15,2013-02-24 09:55:00,
2013-02-24 03:00:00,28.6,25.5,29.79,WSW,243,0.0,0.0,88,0.00,,,0.00,Wunderground v.1.15,2013-02-24 10:00:00,
2013-02-24 03:05:00,28.4,25.3,29.79,WSW,243,0.0,0.0,88,0.00,,,0.00,Wunderground v.1.15,2013-02-24 10:05:00,
2013-02-24 03:15:00,28.3,25.5,29.78,WSW,243,0.0,0.0,89,0.00,,,0.00,Wunderground v.1.15,2013-02-24 10:15:00,
2013-02-24 03:20:00,28.3,25.5,29.79,WSW,243,0.0,0.0,89,0.00,,,0.00,Wunderground v.1.15,2013-02-24 10:20:00,
2013-02-24 03:30:00,28.3,25.5,29.78,WSW,243,0.0,0.0,89,0.00,,,0.00,Wunderground v.1.15,2013-02-24 10:30:00,
2013-02-24 03:35:00,28.4,25.8,29.79,WSW,243,0.0,0.0,90,0.00,,,0.00,Wunderground v.1.15,2013-02-24 10:35:00,
2013-02-24 03:40:00,28.5,25.9,29.78,WSW,255,0.0,1.0,90,0.00,,,0.00,Wunderground v.1.15,2013-02-24 10:40:00,
2013-02-24 03:50:00,28.5,25.7,29.79,WSW,242,1.0,1.0,89,0.00,,,0.00,Wunderground v.1.15,2013-02-24 10:50:00,
2013-02-24 03:55:00,28.5,25.7,29.79,West,262,1.0,1.0,89,0.00,,,0.00,Wunderground v.1.15,2013-02-24 10:55:00,
2013-02-24 04:00:00,28.5,25.7,29.78,West,279,1.0,1.0,89,0.00,,,0.00,Wunderground v.1.15,2013-02-24 11:00:00,
2013-02-24 04:05:00,28.5,25.7,29.78,WSW,255,1.0,2.0,89,0.00,,,0.00,Wunderground v.1.15,2013-02-24 11:05:00,
2013-02-24 04:15:00,28.5,25.7,29.78,WSW,253,1.0,2.0,89,0.00,,,0.00,Wunderground v.1.15,2013-02-24 11:15:00,
2013-02-24 04:25:00,28.5,25.7,29.79,WSW,245,0.0,1.0,89,0.00,,,0.00,Wunderground v.1.15,2013-02-24 11:25:00,
2013-02-24 04:30:00,28.5,25.7,29.79,WSW,245,0.0,0.0,89,0.00,,,0.00,Wunderground v.1.15,2013-02-24 11:30:00,
2013-02-24 04:35:00,28.5,25.7,29.80,WSW,249,0.0,0.0,89,0.00,,,0.00,Wunderground v.1.15,2013-02-24 11:35:00,
2013-02-24 04:40:00,28.5,25.7,29.80,WSW,249,0.0,0.0,89,0.00,,,0.00,Wunderground v.1.15,2013-02-24 11:40:00,
2013-02-24 04:45:00,28.5,25.4,29.80,WSW,249,0.0,0.0,88,0.00,,,0.00,Wunderground v.1.15,2013-02-24 11:45:00,
2013-02-24 04:50:00,28.5,25.7,29.81,WSW,249,0.0,0.0,89,0.00,,,0.00,Wunderground v.1.15,2013-02-24 11:50:00,
2013-02-24 05:00:00,28.6,25.8,29.81,WSW,248,0.0,0.0,89,0.00,,,0.00,Wunderground v.1.15,2013-02-24 12:00:00,
2013-02-24 05:10:00,28.5,25.7,29.81,WSW,249,0.0,0.0,89,0.00,,,0.00,Wunderground v.1.15,2013-02-24 12:10:00,
2013-02-24 05:15:00,28.5,25.7,29.81,WSW,249,0.0,0.0,89,0.00,,,0.00,Wunderground v.1.15,2013-02-24 12:15:00,
2013-02-24 05:20:00,28.5,25.7,29.81,WSW,249,0.0,0.0,89,0.00,,,0.00,Wunderground v.1.15,2013-02-24 12:20:00,
2013-02-24 05:25:00,28.5,25.7,29.81,WSW,249,0.0,0.0,89,0.00,,,0.00,Wunderground v.1.15,2013-02-24 12:25:00,
2013-02-24 05:35:00,28.4,25.8,29.80,WSW,249,0.0,0.0,90,0.00,,,0.00,Wunderground v.1.15,2013-02-24 12:35:00,
2013-02-24 05:45:00,28.5,26.2,29.81,WSW,245,0.0,0.0,91,0.00,,,0.00,Wunderground v.1.15,2013-02-24 12:45:00,
2013-02-24 05:50:00,28.5,26.2,29.81,WSW,244,0.0,0.0,91,0.00,,,0.00,Wunderground v.1.15,2013-02-24 12:50:00,
2013-02-24 05:55:00,28.4,26.1,29.81,WSW,245,0.0,0.0,91,0.00,,,0.00,Wunderground v.1.15,2013-02-24 12:55:00,
2013-02-24 06:00:00,28.4,26.1,29.81,WSW,245,0.0,0.0,91,0.00,,,0.00,Wunderground v.1.15,2013-02-24 13:00:00,
2013-02-24 06:05:00,28.4,26.1,29.81,WSW,245,0.0,0.0,91,0.00,,,0.00,Wunderground v.1.15,2013-02-24 13:05:00,
2013-02-24 06:15:00,28.4,26.1,29.82,WSW,255,0.0,0.0,91,0.00,,,0.00,Wunderground v.1.15,2013-02-24 13:15:00,
2013-02-24 06:20:00,28.3,26.0,29.82,West,264,0.0,1.0,91,0.00,,,0.00,Wunderground v.1.15,2013-02-24 13:20:00,
2013-02-24 06:25:00,28.3,26.0,29.82,WSW,250,1.0,1.0,91,0.00,,,0.00,Wunderground v.1.15,2013-02-24 13:25:00,
2013-02-24 06:30:00,28.3,26.0,29.82,West,280,1.0,1.0,91,0.00,,,0.00,Wunderground v.1.15,2013-02-24 13:30:00,
2013-02-24 06:40:00,28.4,26.1,29.83,West,265,1.0,1.0,91,0.00,,,0.00,Wunderground v.1.15,2013-02-24 13:40:00,
2013-02-24 06:50:00,28.4,26.1,29.83,NNW,327,0.0,0.0,91,0.00,,,0.00,Wunderground v.1.15,2013-02-24 13:50:00,
2013-02-24 06:55:00,28.3,26.0,29.83,WSW,245,0.0,0.0,91,0.00,,,0.00,Wunderground v.1.15,2013-02-24 13:55:00,
2013-02-24 07:00:00,28.3,26.0,29.83,SW,217,0.0,1.0,91,0.00,,,0.00,Wunderground v.1.15,2013-02-24 14:00:00,
2013-02-24 07:05:00,28.2,25.9,29.83,WSW,249,1.0,1.0,91,0.00,,,0.00,Wunderground v.1.15,2013-02-24 14:05:00,
2013-02-24 07:15:00,28.3,26.0,29.83,WSW,242,0.0,1.0,91,0.00,,,0.00,Wunderground v.1.15,2013-02-24 14:15:00,
2013-02-24 07:20:00,28.2,25.9,29.83,WSW,242,0.0,1.0,91,0.00,,,0.00,Wunderground v.1.15,2013-02-24 14:20:00,
2013-02-24 07:30:00,28.2,25.6,29.84,West,262,1.0,1.0,90,0.00,,,0.00,Wunderground v.1.15,2013-02-24 14:30:00,
2013-02-24 07:35:00,28.1,25.5,29.84,WSW,250,1.0,1.0,90,0.00,,,0.00,Wunderground v.1.15,2013-02-24 14:35:00,
2013-02-24 07:40:00,28.2,25.6,29.84,WSW,243,1.0,1.0,90,0.00,,,0.00,Wunderground v.1.15,2013-02-24 14:40:00,
2013-02-24 07:45:00,28.3,25.7,29.84,WSW,248,1.0,1.0,90,0.00,,,0.00,Wunderground v.1.15,2013-02-24 14:45:00,
2013-02-24 07:50:00,28.2,25.4,29.84,SE,136,0.0,0.0,89,0.00,,,0.00,Wunderground v.1.15,2013-02-24 14:50:00,
2013-02-24 07:55:00,28.3,24.9,29.84,SSE,152,0.0,0.0,87,0.00,,,0.00,Wunderground v.1.15,2013-02-24 14:55:00,
2013-02-24 08:00:00,28.3,24.6,29.84,East,79,0.0,1.0,86,0.00,,,0.00,Wunderground v.1.15,2013-02-24 15:00:00,
2013-02-24 08:05:00,28.3,24.4,29.85,ESE,105,1.0,1.0,85,0.00,,,0.00,Wunderground v.1.15,2013-02-24 15:05:00,
2013-02-24 08:15:00,28.2,24.0,29.85,SSE,160,1.0,1.0,84,0.00,,,0.00,Wunderground v.1.15,2013-02-24 15:15:00,
2013-02-24 08:20:00,28.1,23.6,29.86,East,95,1.0,1.0,83,0.00,,,0.00,Wunderground v.1.15,2013-02-24 15:20:00,
2013-02-24 08:30:00,27.9,22.8,29.87,SE,136,2.0,3.0,81,0.00,,,0.00,Wunderground v.1.15,2013-02-24 15:30:00,
2013-02-24 08:35:00,27.8,22.4,29.87,SW,223,2.0,4.0,80,0.00,,,0.00,Wunderground v.1.15,2013-02-24 15:35:00,
2013-02-24 08:40:00,27.8,22.4,29.87,SSW,210,3.0,3.0,80,0.00,,,0.00,Wunderground v.1.15,2013-02-24 15:40:00,
2013-02-24 08:45:00,27.6,22.5,29.88,SE,136,3.0,3.0,81,0.00,,,0.00,Wunderground v.1.15,2013-02-24 15:45:00,
2013-02-24 08:55:00,27.5,21.8,29.89,WNW,295,3.0,6.0,79,0.00,,,0.00,Wunderground v.1.15,2013-02-24 15:55:00,
2013-02-24 09:05:00,27.6,21.9,29.89,SW,217,3.0,3.0,79,0.00,,,0.00,Wunderground v.1.15,2013-02-24 16:05:00,
2013-02-24 09:15:00,27.8,21.2,29.90,South,183,2.0,3.0,76,0.00,,,0.00,Wunderground v.1.15,2013-02-24 16:15:00,
2013-02-24 09:20:00,27.9,21.6,29.90,ESE,113,3.0,5.0,77,0.00,,,0.00,Wunderground v.1.15,2013-02-24 16:20:00,
2013-02-24 09:25:00,27.8,21.5,29.90,SW,227,3.0,5.0,77,0.00,,,0.00,Wunderground v.1.15,2013-02-24 16:25:00,
2013-02-24 09:30:00,27.8,21.5,29.91,East,86,3.0,5.0,77,0.00,,,0.00,Wunderground v.1.15,2013-02-24 16:30:00,
2013-02-24 09:40:00,27.7,22.3,29.91,North,349,2.0,3.0,80,0.00,,,0.00,Wunderground v.1.15,2013-02-24 16:40:00,
2013-02-24 09:45:00,27.5,21.8,29.91,NNE,30,3.0,3.0,79,0.00,,,0.00,Wunderground v.1.15,2013-02-24 16:45:00,
2013-02-24 09:50:00,27.4,21.7,29.92,NE,50,3.0,6.0,79,0.00,,,0.00,Wunderground v.1.15,2013-02-24 16:50:00,
2013-02-24 09:55:00,27.3,21.9,29.92,SSE,147,3.0,6.0,80,0.00,,,0.00,Wunderground v.1.15,2013-02-24 16:55:00,
2013-02-24 10:00:00,27.1,22.0,29.92,WSW,241,4.0,4.0,81,0.00,,,0.00,Wunderground v.1.15,2013-02-24 17:00:00,
2013-02-24 10:05:00,27.1,22.0,29.92,SW,217,3.0,4.0,81,0.00,,,0.00,Wunderground v.1.15,2013-02-24 17:05:00,
2013-02-24 10:15:00,27.1,22.0,29.94,SE,134,3.0,3.0,81,0.00,,,0.00,Wunderground v.1.15,2013-02-24 17:15:00,
2013-02-24 10:20:00,27.1,22.0,29.94,SSW,193,4.0,4.0,81,0.00,,,0.00,Wunderground v.1.15,2013-02-24 17:20:00,
2013-02-24 10:25:00,26.9,22.1,29.94,West,263,3.0,4.0,82,0.00,,,0.00,Wunderground v.1.15,2013-02-24 17:25:00,
2013-02-24 10:30:00,26.8,21.8,29.95,ESE,108,3.0,4.0,81,0.00,,,0.00,Wunderground v.1.15,2013-02-24 17:30:00,
2013-02-24 10:35:00,26.8,21.8,29.95,East,96,3.0,6.0,81,0.00,,,0.00,Wunderground v.1.15,2013-02-24 17:35:00,
2013-02-24 10:40:00,26.8,21.8,29.95,ESE,109,3.0,4.0,81,0.00,,,0.00,Wunderground v.1.15,2013-02-24 17:40:00,
2013-02-24 10:45:00,26.7,21.9,29.95,SSW,207,4.0,4.0,82,0.00,,,0.00,Wunderground v.1.15,2013-02-24 17:45:00,
2013-02-24 10:50:00,26.9,22.1,29.95,East,94,3.0,4.0,82,0.00,,,0.00,Wunderground v.1.15,2013-02-24 17:50:00,
2013-02-24 10:55:00,27.0,21.9,29.95,East,84,2.0,4.0,81,0.00,,,0.00,Wunderground v.1.15,2013-02-24 17:55:00,
2013-02-24 11:05:00,27.6,23.1,29.95,SW,217,2.0,2.0,83,0.00,,,0.00,Wunderground v.1.15,2013-02-24 18:05:00,
2013-02-24 11:15:00,28.2,23.4,29.95,WSW,247,2.0,4.0,82,0.00,,,0.00,Wunderground v.1.15,2013-02-24 18:15:00,
2013-02-24 11:20:00,28.4,23.0,29.95,SE,143,2.0,2.0,80,0.00,,,0.00,Wunderground v.1.15,2013-02-24 18:20:00,
2013-02-24 11:25:00,28.9,23.8,29.95,WSW,240,1.0,3.0,81,0.00,,,0.00,Wunderground v.1.15,2013-02-24 18:25:00,
2013-02-24 11:30:00,28.9,23.5,29.95,SSW,204,2.0,5.0,80,0.00,,,0.00,Wunderground v.1.15,2013-02-24 18:30:00,
2013-02-24 11:35:00,29.0,23.3,29.96,ESE,120,3.0,5.0,79,0.00,,,0.00,Wunderground v.1.15,2013-02-24 18:35:00,
2013-02-24 11:45:00,29.5,23.8,29.96,SE,127,2.0,3.0,79,0.00,,,0.00,Wunderground v.1.15,2013-02-24 18:45:00,
2013-02-24 11:55:00,29.4,22.5,29.96,South,181,2.0,3.0,75,0.00,,,0.00,Wunderground v.1.15,2013-02-24 18:55:00,
2013-02-24 12:00:00,29.4,22.8,29.97,SE,127,2.0,2.0,76,0.00,,,0.00,Wunderground v.1.15,2013-02-24 19:00:00,
2013-02-24 12:05:00,29.3,22.4,29.96,SSE,149,2.0,2.0,75,0.00,,,0.00,Wunderground v.1.15,2013-02-24 19:05:00,
2013-02-24 12:15:00,29.6,23.0,29.96,SSE,149,1.0,2.0,76,0.00,,,0.00,Wunderground v.1.15,2013-02-24 19:15:00,
2013-02-24 12:25:00,29.6,23.0,29.97,SSE,156,2.0,2.0,76,0.00,,,0.00,Wunderground v.1.15,2013-02-24 19:25:00,
2013-02-24 12:35:00,29.2,22.3,29.96,SW,236,2.0,2.0,75,0.00,,,0.00,Wunderground v.1.15,2013-02-24 19:35:00,
2013-02-24 12:40:00,29.1,22.5,29.96,NE,41,2.0,3.0,76,0.00,,,0.00,Wunderground v.1.15,2013-02-24 19:40:00,
2013-02-24 12:45:00,29.2,22.9,29.96,SSE,155,1.0,4.0,77,0.00,,,0.00,Wunderground v.1.15,2013-02-24 19:45:00,
2013-02-24 12:50:00,29.4,22.8,29.96,East,92,1.0,1.0,76,0.00,,,0.00,Wunderground v.1.15,2013-02-24 19:50:00,
2013-02-24 12:55:00,29.8,23.5,29.96,ESE,108,1.0,3.0,77,0.00,,,0.00,Wunderground v.1.15,2013-02-24 19:55:00,
2013-02-24 13:05:00,29.7,23.1,29.96,SSE,152,2.0,3.0,76,0.00,,,0.00,Wunderground v.1.15,2013-02-24 20:05:00,
2013-02-24 13:15:00,29.7,23.4,29.96,South,188,2.0,4.0,77,0.00,,,0.00,Wunderground v.1.15,2013-02-24 20:15:00,
2013-02-24 13:20:00,30.2,23.2,29.97,SSE,163,2.0,2.0,75,0.00,,,0.00,Wunderground v.1.15,2013-02-24 20:20:00,
2013-02-24 13:25:00,30.5,22.9,29.97,ESE,112,1.0,2.0,73,0.00,,,0.00,Wunderground v.1.15,2013-02-24 20:25:00,
2013-02-24 13:30:00,30.2,22.9,29.97,ENE,61,1.0,2.0,74,0.00,,,0.00,Wunderground v.1.15,2013-02-24 20:30:00,
2013-02-24 13:40:00,29.8,23.5,29.97,SE,141,1.0,1.0,77,0.00,,,0.00,Wunderground v.1.15,2013-02-24 20:40:00,
2013-02-24 13:45:00,30.0,23.7,29.97,NNW,345,1.0,3.0,77,0.00,,,0.00,Wunderground v.1.15,2013-02-24 20:45:00,
2013-02-24 13:50:00,29.8,23.8,29.97,ENE,65,1.0,1.0,78,0.00,,,0.00,Wunderground v.1.15,2013-02-24 20:50:00,
2013-02-24 13:55:00,30.0,24.0,29.98,SE,146,1.0,1.0,78,0.00,,,0.00,Wunderground v.1.15,2013-02-24 20:55:00,
2013-02-24 14:05:00,30.2,24.5,29.98,SE,142,0.0,1.0,79,0.00,,,0.00,Wunderground v.1.15,2013-02-24 21:05:00,
2013-02-24 14:15:00,30.2,23.5,29.98,ENE,78,1.0,3.0,76,0.00,,,0.00,Wunderground v.1.15,2013-02-24 21:15:00,
2013-02-24 14:20:00,29.6,23.0,29.98,East,83,2.0,2.0,76,0.00,,,0.00,Wunderground v.1.15,2013-02-24 21:20:00,
2013-02-24 14:25:00,29.1,22.8,29.98,ENE,74,2.0,3.0,77,0.00,,,0.00,Wunderground v.1.15,2013-02-24 21:25:00,
2013-02-24 14:30:00,28.8,22.8,29.99,ESE,110,2.0,2.0,78,0.00,,,0.00,Wunderground v.1.15,2013-02-24 21:30:00,
2013-02-24 14:35:00,29.0,23.3,29.99,SE,128,1.0,2.0,79,0.00,,,0.00,Wunderground v.1.15,2013-02-24 21:35:00,
2013-02-24 14:45:00,29.4,23.4,29.99,East,80,1.0,1.0,78,0.00,,,0.00,Wunderground v.1.15,2013-02-24 21:45:00,
2013-02-24 14:55:00,29.5,23.2,29.99,NNE,15,1.0,2.0,77,0.00,,,0.00,Wunderground v.1.15,2013-02-24 21:55:00,
2013-02-24 15:00:00,29.6,23.3,29.99,SE,139,2.0,2.0,77,0.00,,,0.00,Wunderground v.1.15,2013-02-24 22:00:00,
2013-02-24 15:05:00,29.8,23.2,29.99,ENE,61,1.0,3.0,76,0.00,,,0.00,Wunderground v.1.15,2013-02-24 22:05:00,
2013-02-24 15:15:00,29.3,22.7,30.00,NE,44,2.0,4.0,76,0.00,,,0.00,Wunderground v.1.15,2013-02-24 22:15:00,
2013-02-24 15:20:00,29.0,22.7,30.00,ENE,61,3.0,3.0,77,0.00,,,0.00,Wunderground v.1.15,2013-02-24 22:20:00,
2013-02-24 15:25:00,28.9,22.9,30.00,SE,127,2.0,3.0,78,0.00,,,0.00,Wunderground v.1.15,2013-02-24 22:25:00,
2013-02-24 15:30:00,29.1,23.7,30.00,ESE,106,1.0,1.0,80,0.00,,,0.00,Wunderground v.1.15,2013-02-24 22:30:00,
2013-02-24 15:40:00,29.5,23.5,30.01,SW,226,1.0,2.0,78,0.00,,,0.00,Wunderground v.1.15,2013-02-24 22:40:00,
2013-02-24 15:45:00,29.7,23.1,30.01,SSE,153,1.0,2.0,76,0.00,,,0.00,Wunderground v.1.15,2013-02-24 22:45:00,
2013-02-24 15:55:00,29.2,22.6,30.02,ENE,63,2.0,2.0,76,0.00,,,0.00,Wunderground v.1.15,2013-02-24 22:55:00,
2013-02-24 16:00:00,29.2,22.9,30.02,NE,43,1.0,1.0,77,0.00,,,0.00,Wunderground v.1.15,2013-02-24 23:00:00,
2013-02-24 16:05:00,29.3,22.7,30.02,East,92,1.0,1.0,76,0.00,,,0.00,Wunderground v.1.15,2013-02-24 23:05:00,
2013-02-24 16:15:00,29.0,22.4,30.03,East,94,2.0,4.0,76,0.00,,,0.00,Wunderground v.1.15,2013-02-24 23:15:00,
2013-02-24 16:20:00,28.8,22.5,30.03,East,98,2.0,2.0,77,0.00,,,0.00,Wunderground v.1.15,2013-02-24 23:20:00,
2013-02-24 16:30:00,28.6,22.9,30.04,ENE,72,1.0,1.0,79,0.00,,,0.00,Wunderground v.1.15,2013-02-24 23:30:00,
2013-02-24 16:35:00,28.5,22.8,30.04,NE,49,1.0,2.0,79,0.00,,,0.00,Wunderground v.1.15,2013-02-24 23:35:00,
2013-02-24 16:40:00,28.3,22.6,30.04,WNW,300,2.0,3.0,79,0.00,,,0.00,Wunderground v.1.15,2013-02-24 23:40:00,
2013-02-24 16:45:00,28.3,22.6,30.05,South,173,2.0,3.0,79,0.00,,,0.00,Wunderground v.1.15,2013-02-24 23:45:00,
2013-02-24 16:50:00,28.4,22.7,30.05,ENE,68,1.0,1.0,79,0.00,,,0.00,Wunderground v.1.15,2013-02-24 23:50:00,
2013-02-24 16:55:00,28.3,22.3,30.05,ENE,75,1.0,2.0,78,0.00,,,0.00,Wunderground v.1.15,2013-02-24 23:55:00,
2013-02-24 17:05:00,28.0,22.0,30.06,East,79,1.0,2.0,78,0.00,,,0.00,Wunderground v.1.15,2013-02-25 00:05:00,
2013-02-24 17:15:00,27.7,22.0,30.06,East,82,1.0,1.0,79,0.00,,,0.00,Wunderground v.1.15,2013-02-25 00:15:00,
2013-02-24 17:20:00,27.6,21.9,30.06,ENE,72,1.0,1.0,79,0.00,,,0.00,Wunderground v.1.15,2013-02-25 00:20:00,
2013-02-24 17:25:00,27.5,22.1,30.07,ESE,105,1.0,1.0,80,0.00,,,0.00,Wunderground v.1.15,2013-02-25 00:25:00,
2013-02-24 17:30:00,27.4,21.7,30.07,East,83,1.0,1.0,79,0.00,,,0.00,Wunderground v.1.15,2013-02-25 00:30:00,
2013-02-24 17:40:00,27.3,21.6,30.08,ESE,121,0.0,0.0,79,0.00,,,0.00,Wunderground v.1.15,2013-02-25 00:40:00,
2013-02-24 17:45:00,27.2,21.5,30.08,East,86,0.0,2.0,79,0.00,,,0.00,Wunderground v.1.15,2013-02-25 00:45:00,
2013-02-24 17:50:00,27.1,21.5,30.08,NE,56,1.0,1.0,79,0.00,,,0.00,Wunderground v.1.15,2013-02-25 00:50:00,
2013-02-24 17:55:00,27.0,21.7,30.08,SE,133,1.0,1.0,80,0.00,,,0.00,Wunderground v.1.15,2013-02-25 00:55:00,
2013-02-24 18:05:00,26.8,21.8,30.09,SE,127,0.0,1.0,81,0.00,,,0.00,Wunderground v.1.15,2013-02-25 01:05:00,
2013-02-24 18:15:00,26.6,21.6,30.09,SE,130,0.0,2.0,81,0.00,,,0.00,Wunderground v.1.15,2013-02-25 01:15:00,
2013-02-24 18:20:00,26.5,21.5,30.10,East,84,1.0,1.0,81,0.00,,,0.00,Wunderground v.1.15,2013-02-25 01:20:00,
2013-02-24 18:25:00,26.5,21.5,30.10,ENE,72,1.0,3.0,81,0.00,,,0.00,Wunderground v.1.15,2013-02-25 01:25:00,
2013-02-24 18:30:00,26.4,21.1,30.10,SE,129,1.0,1.0,80,0.00,,,0.00,Wunderground v.1.15,2013-02-25 01:30:00,
2013-02-24 18:35:00,26.3,21.3,30.11,SE,128,1.0,1.0,81,0.00,,,0.00,Wunderground v.1.15,2013-02-25 01:35:00,
2013-02-24 18:45:00,26.0,21.3,30.11,ESE,117,0.0,1.0,82,0.00,,,0.00,Wunderground v.1.15,2013-02-25 01:45:00,
2013-02-24 18:55:00,25.8,21.1,30.12,East,84,1.0,1.0,82,0.00,,,0.00,Wunderground v.1.15,2013-02-25 01:55:00,
2013-02-24 19:00:00,25.5,21.1,30.12,ESE,120,1.0,1.0,83,0.00,,,0.00,Wunderground v.1.15,2013-02-25 02:00:00,
2013-02-24 19:05:00,25.1,20.7,30.13,ESE,120,0.0,1.0,83,0.00,,,0.00,Wunderground v.1.15,2013-02-25 02:05:00,
2013-02-24 19:15:00,24.7,20.8,30.12,ESE,120,0.0,0.0,85,0.00,,,0.00,Wunderground v.1.15,2013-02-25 02:15:00,
2013-02-24 19:20:00,24.6,21.0,30.13,East,89,0.0,0.0,86,0.00,,,0.00,Wunderground v.1.15,2013-02-25 02:20:00,
2013-02-24 19:25:00,24.6,21.0,30.13,East,89,0.0,0.0,86,0.00,,,0.00,Wunderground v.1.15,2013-02-25 02:25:00,
2013-02-24 19:30:00,24.5,21.2,30.13,East,84,0.0,1.0,87,0.00,,,0.00,Wunderground v.1.15,2013-02-25 02:30:00,
2013-02-24 19:40:00,24.6,21.3,30.13,ESE,110,1.0,1.0,87,0.00,,,0.00,Wunderground v.1.15,2013-02-25 02:40:00,
2013-02-24 19:45:00,24.7,21.4,30.14,NE,52,0.0,2.0,87,0.00,,,0.00,Wunderground v.1.15,2013-02-25 02:45:00,
2013-02-24 19:50:00,24.7,21.4,30.14,ENE,70,1.0,1.0,87,0.00,,,0.00,Wunderground v.1.15,2013-02-25 02:50:00,
2013-02-24 19:55:00,24.6,21.3,30.14,ENE,70,1.0,1.0,87,0.00,,,0.00,Wunderground v.1.15,2013-02-25 02:55:00,
2013-02-24 20:00:00,24.5,21.2,30.14,East,79,1.0,1.0,87,0.00,,,0.00,Wunderground v.1.15,2013-02-25 03:00:00,
2013-02-24 20:05:00,24.4,21.4,30.14,East,79,1.0,1.0,88,0.00,,,0.00,Wunderground v.1.15,2013-02-25 03:05:00,
2013-02-24 20:15:00,24.4,21.4,30.14,East,79,0.0,1.0,88,0.00,,,0.00,Wunderground v.1.15,2013-02-25 03:15:00,
2013-02-24 20:20:00,24.4,21.4,30.14,East,79,0.0,0.0,88,0.00,,,0.00,Wunderground v.1.15,2013-02-25 03:20:00,
2013-02-24 20:25:00,24.3,21.3,30.15,East,79,0.0,0.0,88,0.00,,,0.00,Wunderground v.1.15,2013-02-25 03:25:00,
2013-02-24 20:30:00,24.2,21.2,30.15,East,79,0.0,0.0,88,0.00,,,0.00,Wunderground v.1.15,2013-02-25 03:30:00,
2013-02-24 20:35:00,24.2,21.2,30.15,East,79,0.0,0.0,88,0.00,,,0.00,Wunderground v.1.15,2013-02-25 03:35:00,
2013-02-24 20:40:00,24.2,21.2,30.15,East,79,0.0,0.0,88,0.00,,,0.00,Wunderground v.1.15,2013-02-25 03:40:00,
2013-02-24 20:45:00,24.2,21.2,30.15,East,79,0.0,0.0,88,0.00,,,0.00,Wunderground v.1.15,2013-02-25 03:45:00,
2013-02-24 20:50:00,24.2,21.2,30.14,East,79,0.0,0.0,88,0.00,,,0.00,Wunderground v.1.15,2013-02-25 03:50:00,
2013-02-24 20:55:00,24.2,21.2,30.15,SSE,160,0.0,0.0,88,0.00,,,0.00,Wunderground v.1.15,2013-02-25 03:55:00,
2013-02-24 21:00:00,24.1,21.1,30.15,SSE,160,0.0,0.0,88,0.00,,,0.00,Wunderground v.1.15,2013-02-25 04:00:00,
2013-02-24 21:05:00,24.2,21.4,30.15,SSE,155,0.0,0.0,89,0.00,,,0.00,Wunderground v.1.15,2013-02-25 04:05:00,
2013-02-24 21:15:00,24.4,21.6,30.15,SE,143,0.0,0.0,89,0.00,,,0.00,Wunderground v.1.15,2013-02-25 04:15:00,
2013-02-24 21:20:00,24.5,21.5,30.15,SE,144,0.0,0.0,88,0.00,,,0.00,Wunderground v.1.15,2013-02-25 04:20:00,
2013-02-24 21:25:00,24.5,21.5,30.15,SE,144,0.0,0.0,88,0.00,,,0.00,Wunderground v.1.15,2013-02-25 04:25:00,
2013-02-24 21:30:00,24.5,21.5,30.15,SE,143,0.0,0.0,88,0.00,,,0.00,Wunderground v.1.15,2013-02-25 04:30:00,
2013-02-24 21:35:00,24.5,21.5,30.16,SE,143,0.0,0.0,88,0.00,,,0.00,Wunderground v.1.15,2013-02-25 04:35:00,
2013-02-24 21:40:00,24.4,21.4,30.16,SE,144,0.0,0.0,88,0.00,,,0.00,Wunderground v.1.15,2013-02-25 04:40:00,
2013-02-24 21:45:00,24.4,21.1,30.16,SE,144,0.0,0.0,87,0.00,,,0.00,Wunderground v.1.15,2013-02-25 04:45:00,
2013-02-24 21:50:00,24.5,21.5,30.16,SE,144,0.0,0.0,88,0.00,,,0.00,Wunderground v.1.15,2013-02-25 04:50:00,
2013-02-24 22:00:00,24.5,20.9,30.16,ESE,118,0.0,0.0,86,0.00,,,0.00,Wunderground v.1.15,2013-02-25 05:00:00,
2013-02-24 22:05:00,24.6,20.7,30.16,ESE,118,0.0,0.0,85,0.00,,,0.00,Wunderground v.1.15,2013-02-25 05:05:00,
2013-02-24 22:15:00,24.6,20.7,30.16,ESE,119,0.0,0.0,85,0.00,,,0.00,Wunderground v.1.15,2013-02-25 05:15:00,
2013-02-24 22:20:00,24.6,20.7,30.16,ESE,118,0.0,0.0,85,0.00,,,0.00,Wunderground v.1.15,2013-02-25 05:20:00,
2013-02-24 22:25:00,24.6,20.7,30.16,ESE,119,0.0,0.0,85,0.00,,,0.00,Wunderground v.1.15,2013-02-25 05:25:00,
2013-02-24 22:30:00,24.6,20.7,30.16,SE,146,0.0,0.0,85,0.00,,,0.00,Wunderground v.1.15,2013-02-25 05:30:00,
2013-02-24 22:35:00,24.6,20.7,30.16,East,89,0.0,0.0,85,0.00,,,0.00,Wunderground v.1.15,2013-02-25 05:35:00,
2013-02-24 22:45:00,24.6,20.5,30.15,East,85,1.0,1.0,84,0.00,,,0.00,Wunderground v.1.15,2013-02-25 05:45:00,
2013-02-24 22:50:00,24.6,20.5,30.15,ENE,60,0.0,0.0,84,0.00,,,0.00,Wunderground v.1.15,2013-02-25 05:50:00,
2013-02-24 22:55:00,24.5,20.1,30.15,ENE,78,1.0,1.0,83,0.00,,,0.00,Wunderground v.1.15,2013-02-25 05:55:00,
2013-02-24 23:00:00,24.4,19.7,30.15,ENE,78,0.0,0.0,82,0.00,,,0.00,Wunderground v.1.15,2013-02-25 06:00:00,
2013-02-24 23:05:00,24.4,19.7,30.15,ENE,78,0.0,0.0,82,0.00,,,0.00,Wunderground v.1.15,2013-02-25 06:05:00,
2013-02-24 23:15:00,24.4,19.4,30.15,East,82,0.0,0.0,81,0.00,,,0.00,Wunderground v.1.15,2013-02-25 06:15:00,
2013-02-24 23:20:00,24.4,19.4,30.14,East,98,0.0,0.0,81,0.00,,,0.00,Wunderground v.1.15,2013-02-25 06:20:00,
2013-02-24 23:25:00,23.9,17.7,30.14,West,269,1.0,2.0,77,0.00,,,0.00,Wunderground v.1.15,2013-02-25 06:25:00,
2013-02-24 23:35:00,23.0,15.9,30.14,West,264,2.0,4.0,74,0.00,,,0.00,Wunderground v.1.15,2013-02-25 06:35:00,
2013-02-24 23:40:00,22.5,15.8,30.14,West,267,2.0,3.0,75,0.00,,,0.00,Wunderground v.1.15,2013-02-25 06:40:00,
2013-02-24 23:45:00,22.0,15.3,30.14,West,264,2.0,3.0,75,0.00,,,0.00,Wunderground v.1.15,2013-02-25 06:45:00,
2013-02-24 23:50:00,21.6,14.6,30.14,WNW,287,2.0,3.0,74,0.00,,,0.00,Wunderground v.1.15,2013-02-25 06:50:00,
2013-02-24 23:55:00,21.2,14.5,30.14,WNW,283,2.0,3.0,75,0.00,,,0.00,Wunderground v.1.15,2013-02-25 06:55:00,